EW3302 Weather Reports


time (UTC)temp
F
wind
direction
speed
knots
gust
knots
rain 1hr
in
rain 24hr
in
rain mn
in
humidity
%
barometer
mb
20260503021516 42 338 4.3 7.8 0.01 0.09 0.01 81 1009.6
20260503020516 42 338 4.3 9.6 0.00 0.08 0.00 79 1009.4
20260503015516 43 0 4.3 11.3 0.00 0.08 0.00 79 1009.4
20260503014516 43 338 4.3 10.4 0.00 0.08 0.00 80 1009.4
20260503013536 43 338 6.1 13.0 0.00 0.08 0.00 81 1009.2
20260503012515 43 338 6.1 14.8 0.00 0.08 0.00 82 1009.1
20260503011516 44 338 6.1 10.4 0.00 0.08 0.00 83 1008.9
20260503010515 44 0 7.0 13.9 0.00 0.08 0.00 83 1008.9
20260503005516 45 0 5.2 10.4 0.00 0.08 0.00 83 1008.7
20260503004516 45 0 6.1 13.0 0.00 0.08 0.00 83 1008.5
20260503003536 46 0 5.2 8.7 0.00 0.08 0.00 85 1008.5
20260503002516 47 338 6.1 11.3 0.00 0.08 0.00 86 1008.4
20260503001516 48 0 4.3 8.7 0.00 0.08 0.00 90 1008.2
20260503000516 48 338 0.9 4.3 0.00 0.08 0.00 91 1008.1
20260502235516 48 0 1.7 3.5 0.00 0.08 0.00 91 1008.1
20260502234515 48 315 0.9 1.7 0.00 0.08 0.00 91 1008.0
20260502233515 48 293 0.9 1.7 0.00 0.08 0.00 91 1008.0
20260502232516 48 293 0.9 1.7 0.00 0.08 0.00 90 1007.9
20260502231516 48 0.0 0.9 0.00 0.08 0.00 90 1007.9
20260502230515 48 0.0 1.7 0.00 0.08 0.00 89 1007.8
20260502225516 49 203 0.9 1.7 0.00 0.08 0.00 89 1007.7
20260502224515 49 203 0.9 1.7 0.00 0.08 0.00 88 1007.7
20260502223516 49 203 1.7 2.6 0.00 0.08 0.00 89 1007.7
20260502222535 49 180 0.9 1.7 0.00 0.08 0.00 89 1007.7
20260502221515 49 180 0.9 2.6 0.01 0.08 0.00 88 1007.8
20260502220515 49 225 0.9 2.6 0.01 0.08 0.00 89 1007.7
20260502215517 49 203 1.7 3.5 0.01 0.08 0.08 89 1007.7
20260502214517 49 203 1.7 3.5 0.01 0.08 0.08 89 1007.8
20260502213517 49 0.0 1.7 0.01 0.08 0.08 89 1007.7
20260502212517 49 248 0.9 1.7 0.01 0.08 0.08 89 1007.8
20260502211517 49 248 0.9 2.6 0.00 0.07 0.07 89 1007.9
20260502210537 49 248 0.9 0.9 0.00 0.07 0.07 89 1007.9
20260502205557 49 248 0.9 1.7 0.01 0.07 0.07 89 1007.9
20260502204517 49 248 0.9 2.6 0.01 0.07 0.07 88 1007.9
20260502203517 49 248 0.9 1.7 0.02 0.07 0.07 88 1007.9
20260502202517 49 270 0.9 2.6 0.04 0.07 0.07 87 1008.0
20260502201537 49 270 0.9 1.7 0.06 0.07 0.07 86 1007.8
20260502200517 50 315 0.9 1.7 0.06 0.07 0.07 85 1007.9
20260502195537 50 315 1.7 2.6 0.06 0.06 0.06 84 1007.9
20260502194517 51 315 1.7 2.6 0.06 0.06 0.06 82 1008.0
20260502193517 52 315 1.7 3.5 0.04 0.05 0.05 78 1008.0
20260502192517 53 270 2.6 6.1 0.02 0.03 0.03 71 1008.2
20260502191537 54 225 0.9 0.9 0.01 0.02 0.02 67 1007.9
20260502190517 55 225 2.6 7.0 0.00 0.01 0.01 61 1008.2
20260502185517 56 180 0.9 4.3 0.01 0.01 0.01 59 1007.9
20260502184517 56 293 2.6 4.3 0.01 0.01 0.01 54 1007.8
20260502183517 57 315 2.6 6.1 0.01 0.01 0.01 55 1007.6
20260502182517 57 270 2.6 5.2 0.01 0.01 0.01 52 1007.4
20260502181517 58 315 5.2 9.6 0.01 0.01 0.01 51 1007.2
20260502180637 58 270 4.3 8.7 0.01 0.01 0.01 50 1006.9
20260502170517 62 248 5.2 8.7 0.00 0.00 0.00 45 1006.3
20260502163517 62 270 3.5 7.0 0.00 0.00 0.00 46 1006.4
20260502162537 62 270 5.2 10.4 0.00 0.00 0.00 47 1006.3
20260502161517 62 270 4.3 9.6 0.00 0.00 0.00 49 1006.2
20260502160537 62 270 4.3 7.8 0.00 0.00 0.00 48 1006.2
20260502151537 67 225 5.2 10.4 0.00 0.00 0.00 32 1006.5
20260502150516 68 248 5.2 11.3 0.00 0.00 0.00 34 1006.6
20260502130517 71 225 8.7 14.8 0.00 0.00 0.00 28 1007.2
20260502123516 71 203 7.8 14.8 0.00 0.00 0.00 28 1007.5
20260502122517 72 203 7.8 16.5 0.00 0.00 0.00 28 1007.6
20260502121516 72 203 6.1 10.4 0.00 0.00 0.00 28 1007.7
20260502120537 71 225 8.7 14.8 0.00 0.00 0.00 25 1007.9
20260502115517 71 225 7.8 13.9 0.00 0.00 0.00 26 1008.0
20260502114517 71 248 8.7 16.5 0.00 0.00 0.00 25 1008.1
20260502113517 71 203 7.0 16.5 0.00 0.00 0.00 26 1008.2
20260502112516 70 225 6.1 10.4 0.00 0.00 0.00 24 1008.3
20260502111517 69 248 7.0 12.2 0.00 0.00 0.00 27 1008.5
20260502110516 70 225 7.0 13.0 0.00 0.00 0.00 25 1008.6
20260502105536 69 248 7.8 16.5 0.00 0.00 0.00 23 1008.7
20260502104516 69 203 9.6 15.6 0.00 0.00 0.00 25 1008.8
20260502103517 69 225 7.0 12.2 0.00 0.00 0.00 26 1008.9
20260502102516 69 203 8.7 13.0 0.00 0.00 0.00 26 1008.9
20260502101516 68 203 4.3 9.6 0.00 0.00 0.00 30 1009.2
20260502100517 67 225 7.0 14.8 0.00 0.00 0.00 26 1009.4
20260502090516 65 203 8.7 13.0 0.00 0.00 0.00 30 1010.0
20260502071516 60 203 7.0 13.0 0.00 0.00 0.00 42 1010.9
20260502070516 60 225 4.3 9.6 0.00 0.00 0.00 42 1011.0
20260502065516 59 225 4.3 11.3 0.00 0.00 0.00 44 1011.2
20260502064517 59 225 5.2 12.2 0.00 0.00 0.00 42 1011.1
20260502063516 59 225 4.3 10.4 0.00 0.00 0.00 44 1011.2
20260502062516 58 248 4.3 7.8 0.00 0.00 0.00 45 1011.2
20260502061516 57 225 5.2 10.4 0.00 0.00 0.00 46 1011.3
20260502060557 57 225 6.1 13.9 0.00 0.00 0.00 46 1011.2
20260502055517 56 248 5.2 11.3 0.00 0.00 0.00 47 1011.3
20260502054516 55 248 7.0 13.0 0.00 0.00 0.00 49 1011.3
20260502053516 55 225 5.2 9.6 0.00 0.00 0.00 51 1011.3
20260502052516 54 225 3.5 7.8 0.00 0.00 0.00 52 1011.3
20260502051516 53 270 3.5 8.7 0.00 0.00 0.00 54 1011.4
20260502050516 53 248 2.6 7.8 0.00 0.00 0.00 54 1011.4
20260502045516 52 225 4.3 9.6 0.00 0.00 0.00 56 1011.5
20260502044516 52 203 3.5 8.7 0.00 0.00 0.00 58 1011.5
20260502043516 51 180 3.5 8.7 0.00 0.00 0.00 60 1011.6
20260502042536 49 270 2.6 7.0 0.00 0.00 0.00 63 1011.6
20260502041516 47 68 1.7 3.5 0.00 0.00 0.00 66 1011.7
20260502040516 47 338 0.9 3.5 0.00 0.00 0.00 67 1011.8
20260502035516 45 315 0.9 1.7 0.00 0.00 0.00 70 1011.8
20260502034516 44 68 0.9 1.7 0.00 0.00 0.00 71 1011.8
20260502033516 44 23 0.9 1.7 0.00 0.00 0.00 72 1011.8
20260502032516 43 225 0.9 2.6 0.00 0.00 0.00 72 1011.9
20260502031536 43 23 1.7 2.6 0.00 0.00 0.00 73 1012.1
20260502030516 42 45 0.9 2.6 0.00 0.00 0.00 74 1012.1
20260502025516 42 225 0.9 2.6 0.00 0.00 0.00 74 1012.3
20260502024516 42 0.0 2.6 0.00 0.00 0.00 74 1012.4
20260502023516 42 0.0 0.9 0.00 0.00 0.00 73 1012.4
20260502022516 43 338 0.9 1.7 0.00 0.00 0.00 73 1012.5